Location: Newark
(45.7425°N, 0.7617°W)
Time: 14:00:24
(UTC+00:00)

N. Korean satellite - Pass Details

Date: 02 February 2020
Orbit: 456 x 505 km, 97.2° (Epoch: 29 February)

Event Time Altitude Azimuth Distance (km) Brightness Sun altitude
Rises 05:25:25 0° 20° (NNE) 2,570 10.5 -20.9°
Reaches altitude 10° 05:27:36 10° 29° (NNE) 1,692 9.6 -20.5°
Maximum altitude 05:31:00 37° 97° (E) 794 8.2 -19.9°
Drops below altitude 10° 05:34:25 10° 166° (SSE) 1,699 9.5 -19.3°
Sets 05:36:36 0° 175° (S) 2,583 10.4 -19.0°
